�������l�o���
Date,Time,MP-1(��Sv/h),MP-2(��Sv/h),MP-3(��Sv/h),MP-4(��Sv/h),MP-5(��Sv/h),MP-6(��Sv/h),MP-7(��Sv/h),MP-8(��Sv/h),����,����(m/s),���J
2018/04/30,00:00,0.867,1.423,0.896,1.653,1.147,0.483,0.851,0.811,��,8.0,��
2018/04/30,00:10,0.867,1.423,0.895,1.653,1.148,0.485,0.850,0.812,��,9.4,��
2018/04/30,00:20,0.869,1.422,0.896,1.654,1.146,0.484,0.851,0.810,��,9.6,��
2018/04/30,00:30,0.865,1.424,0.897,1.651,1.149,0.484,0.851,0.811,��,8.9,��
2018/04/30,00:40,0.865,1.420,0.897,1.652,1.148,0.484,0.850,0.811,��,8.9,��
2018/04/30,00:50,0.864,1.422,0.896,1.651,1.150,0.483,0.852,0.810,��,8.3,��
2018/04/30,01:00,0.864,1.423,0.896,1.649,1.149,0.484,0.851,0.811,��,7.5,��
2018/04/30,01:10,0.866,1.421,0.897,1.651,1.148,0.484,0.849,0.813,��,6.2,��
2018/04/30,01:20,0.866,1.419,0.895,1.650,1.149,0.483,0.850,0.811,��,6.2,��
2018/04/30,01:30,0.865,1.420,0.896,1.652,1.149,0.486,0.851,0.812,��,7.0,��
2018/04/30,01:40,0.865,1.422,0.894,1.653,1.147,0.484,0.850,0.811,��,7.2,��
2018/04/30,01:50,0.864,1.420,0.897,1.650,1.148,0.485,0.850,0.811,��,8.5,��
2018/04/30,02:00,0.868,1.421,0.896,1.650,1.148,0.484,0.851,0.811,��,7.6,��
2018/04/30,02:10,0.867,1.420,0.894,1.652,1.149,0.483,0.850,0.813,��,7.0,��
2018/04/30,02:20,0.865,1.419,0.896,1.649,1.147,0.485,0.852,0.809,��,7.2,��
2018/04/30,02:30,0.865,1.420,0.895,1.651,1.150,0.482,0.850,0.810,��,8.4,��
2018/04/30,02:40,0.863,1.420,0.897,1.649,1.150,0.484,0.849,0.810,��,7.7,��
2018/04/30,02:50,0.863,1.419,0.896,1.652,1.149,0.485,0.849,0.811,��,7.6,��
2018/04/30,03:00,0.866,1.422,0.896,1.650,1.147,0.484,0.852,0.811,��,7.9,��
2018/04/30,03:10,0.865,1.419,0.894,1.652,1.149,0.484,0.849,0.810,��,7.6,��
2018/04/30,03:20,0.865,1.421,0.897,1.651,1.149,0.484,0.851,0.811,��,7.9,��
2018/04/30,03:30,0.865,1.420,0.895,1.651,1.147,0.484,0.850,0.812,��,8.9,��
2018/04/30,03:40,0.863,1.418,0.896,1.652,1.149,0.485,0.850,0.810,��,7.9,��
2018/04/30,03:50,0.865,1.421,0.897,1.652,1.148,0.484,0.851,0.811,��,8.0,��
2018/04/30,04:00,0.863,1.419,0.894,1.650,1.146,0.485,0.850,0.812,��,9.0,��
2018/04/30,04:10,0.863,1.419,0.894,1.651,1.145,0.486,0.852,0.811,��,9.0,��
2018/04/30,04:20,0.865,1.420,0.895,1.650,1.146,0.485,0.851,0.811,��,7.9,��
2018/04/30,04:30,0.864,1.418,0.896,1.648,1.148,0.485,0.851,0.811,��,8.2,��
2018/04/30,04:40,0.862,1.419,0.895,1.650,1.144,0.485,0.851,0.811,��쐼,7.6,��
2018/04/30,04:50,0.864,1.417,0.895,1.651,1.145,0.486,0.852,0.811,��,8.2,��
2018/04/30,05:00,0.864,1.418,0.898,1.649,1.146,0.484,0.851,0.811,��,8.3,��
2018/04/30,05:10,0.863,1.418,0.895,1.650,1.149,0.485,0.850,0.810,��,8.3,��
2018/04/30,05:20,0.863,1.419,0.893,1.651,1.145,0.484,0.852,0.811,��,7.7,��
2018/04/30,05:30,0.864,1.420,0.893,1.650,1.146,0.484,0.851,0.810,��,7.8,��
2018/04/30,05:40,0.862,1.420,0.895,1.651,1.146,0.484,0.851,0.811,��,6.6,��
2018/04/30,05:50,0.863,1.419,0.893,1.649,1.147,0.484,0.850,0.810,��,5.9,��
2018/04/30,06:00,0.866,1.420,0.896,1.651,1.147,0.485,0.851,0.810,��,6.6,��
2018/04/30,06:10,0.864,1.420,0.895,1.649,1.146,0.484,0.852,0.810,��쐼,7.6,��
2018/04/30,06:20,0.865,1.420,0.895,1.652,1.149,0.484,0.850,0.811,��쐼,8.2,��
2018/04/30,06:30,0.866,1.420,0.895,1.649,1.149,0.486,0.850,0.811,��쐼,7.4,��
2018/04/30,06:40,0.864,1.420,0.895,1.651,1.147,0.484,0.852,0.810,��쐼,6.9,��
2018/04/30,06:50,0.867,1.419,0.895,1.653,1.147,0.484,0.853,0.812,��,7.0,��
2018/04/30,07:00,0.866,1.419,0.894,1.652,1.148,0.483,0.851,0.811,��쐼,5.5,��
2018/04/30,07:10,0.865,1.418,0.896,1.650,1.147,0.482,0.853,0.811,��,6.3,��
2018/04/30,07:20,0.865,1.419,0.896,1.650,1.147,0.484,0.850,0.813,��,7.7,��
2018/04/30,07:30,0.865,1.420,0.896,1.652,1.146,0.482,0.851,0.812,��,7.8,��
2018/04/30,07:40,0.864,1.418,0.896,1.653,1.146,0.483,0.853,0.813,��,7.7,��
2018/04/30,07:50,0.864,1.420,0.897,1.655,1.145,0.483,0.851,0.812,��,6.3,��
2018/04/30,08:00,0.865,1.420,0.897,1.651,1.145,0.484,0.849,0.810,��쓌,7.8,��
2018/04/30,08:10,0.867,1.421,0.896,1.655,1.148,0.484,0.851,0.811,��쓌,8.0,��
2018/04/30,08:20,0.864,1.419,0.897,1.656,1.147,0.484,0.850,0.811,��,9.0,��
2018/04/30,08:30,0.867,1.421,0.896,1.654,1.147,0.484,0.850,0.808,��쓌,11.1,��
2018/04/30,08:40,0.864,1.422,0.897,1.656,1.147,0.484,0.851,0.808,��쓌,10.3,��
2018/04/30,08:50,0.864,1.424,0.894,1.656,1.148,0.483,0.848,0.810,��,10.4,��
2018/04/30,09:00,0.866,1.424,0.895,1.656,1.149,0.485,0.848,0.811,��쓌,11.7,��
2018/04/30,09:10,0.865,1.423,0.894,1.657,1.152,0.484,0.848,0.810,��쓌,13.1,��
2018/04/30,09:20,0.865,1.424,0.894,1.656,1.148,0.483,0.848,0.810,��쓌,12.7,��
2018/04/30,09:30,0.866,1.426,0.895,1.657,1.150,0.484,0.849,0.808,��쓌,12.4,��
2018/04/30,09:40,0.865,1.425,0.896,1.656,1.151,0.484,0.851,0.810,��쓌,13.1,��
2018/04/30,09:50,0.864,1.425,0.898,1.656,1.152,0.484,0.850,0.812,��,11.3,��
2018/04/30,10:00,0.868,1.425,0.898,1.658,1.150,0.484,0.849,0.809,��쓌,13.5,��
2018/04/30,10:10,0.866,1.425,0.895,1.656,1.152,0.485,0.848,0.809,��쓌,12.1,��
2018/04/30,10:20,0.866,1.425,0.895,1.655,1.151,0.483,0.850,0.809,��쓌,13.5,��
2018/04/30,10:30,0.868,1.427,0.898,1.655,1.152,0.484,0.849,0.810,��쓌,10.6,��
2018/04/30,10:40,0.866,1.427,0.896,1.656,1.151,0.484,0.851,0.809,��,12.4,��
2018/04/30,10:50,0.867,1.429,0.896,1.655,1.154,0.484,0.850,0.809,��,12.7,��
2018/04/30,11:00,0.867,1.429,0.899,1.656,1.149,0.486,0.851,0.811,��,12.7,��
2018/04/30,11:10,0.867,1.426,0.899,1.658,1.151,0.483,0.851,0.810,��,14.2,��
2018/04/30,11:20,0.868,1.428,0.897,1.650,1.153,0.483,0.851,0.810,��쓌,13.6,��
2018/04/30,11:30,0.867,1.427,0.898,1.653,1.155,0.485,0.851,0.811,��쓌,13.8,��
2018/04/30,11:40,0.868,1.427,0.899,1.657,1.152,0.485,0.850,0.810,��,13.3,��
2018/04/30,11:50,0.870,1.430,0.898,1.656,1.154,0.486,0.852,0.811,��,11.9,��
2018/04/30,12:00,0.869,1.428,0.900,1.655,1.154,0.484,0.851,0.811,��,12.0,��
2018/04/30,12:10,0.869,1.428,0.899,1.655,1.155,0.483,0.850,0.810,��쓌,13.5,��
2018/04/30,12:20,0.868,1.428,0.897,1.657,1.156,0.485,0.852,0.810,��,14.7,��
2018/04/30,12:30,0.871,1.429,0.899,1.657,1.155,0.484,0.852,0.811,��,12.8,��
2018/04/30,12:40,0.869,1.428,0.899,1.655,1.155,0.485,0.852,0.811,��,13.0,��
2018/04/30,12:50,0.870,1.429,0.899,1.654,1.157,0.486,0.852,0.812,��,12.4,��
2018/04/30,13:00,0.869,1.430,0.898,1.658,1.156,0.485,0.852,0.812,��,12.4,��
2018/04/30,13:10,0.870,1.429,0.898,1.656,1.155,0.485,0.851,0.811,��,10.9,��
2018/04/30,13:20,0.870,1.429,0.898,1.655,1.157,0.485,0.852,0.811,��쓌,14.1,��
2018/04/30,13:30,0.870,1.429,0.899,1.658,1.155,0.483,0.851,0.811,��,11.4,��
2018/04/30,13:40,0.870,1.430,0.899,1.656,1.157,0.486,0.852,0.810,��,11.6,��
2018/04/30,13:50,0.871,1.430,0.899,1.656,1.157,0.485,0.851,0.811,��,9.4,��
2018/04/30,14:00,0.871,1.431,0.898,1.657,1.155,0.484,0.851,0.811,��,14.1,��
2018/04/30,14:10,0.870,1.429,0.899,1.657,1.158,0.485,0.851,0.811,��,12.2,��
2018/04/30,14:20,0.873,1.431,0.900,1.657,1.155,0.484,0.851,0.814,��,11.9,��
2018/04/30,14:30,0.871,1.429,0.900,1.656,1.157,0.484,0.852,0.811,��,9.9,��
2018/04/30,14:40,0.870,1.431,0.899,1.658,1.157,0.484,0.851,0.812,��,10.2,��
2018/04/30,14:50,0.871,1.427,0.899,1.657,1.157,0.486,0.852,0.813,��,8.7,��
2018/04/30,15:00,0.870,1.429,0.901,1.655,1.159,0.483,0.853,0.811,��,8.4,��
2018/04/30,15:10,0.871,1.428,0.901,1.659,1.158,0.484,0.851,0.812,��,7.1,��
2018/04/30,15:20,0.872,1.429,0.900,1.658,1.157,0.485,0.852,0.812,��,8.9,��
2018/04/30,15:30,0.867,1.427,0.902,1.654,1.155,0.485,0.850,0.811,��,9.8,��
2018/04/30,15:40,0.869,1.429,0.902,1.657,1.158,0.484,0.851,0.814,��,9.2,��
2018/04/30,15:50,0.871,1.428,0.901,1.658,1.156,0.484,0.850,0.812,��,9.0,��
2018/04/30,16:00,0.869,1.430,0.901,1.658,1.158,0.483,0.852,0.812,��,6.1,��
2018/04/30,16:10,0.871,1.429,0.901,1.660,1.157,0.484,0.852,0.812,��,8.2,��
2018/04/30,16:20,0.871,1.430,0.901,1.656,1.157,0.484,0.851,0.810,��,7.4,��
2018/04/30,16:30,0.870,1.429,0.900,1.660,1.160,0.484,0.851,0.811,��,6.4,��
2018/04/30,16:40,0.870,1.429,0.901,1.658,1.158,0.483,0.850,0.811,��,7.5,��
2018/04/30,16:50,0.870,1.431,0.902,1.657,1.156,0.483,0.851,0.811,��,7.8,��
2018/04/30,17:00,0.868,1.429,0.902,1.658,1.159,0.483,0.852,0.812,��,6.8,��
2018/04/30,17:10,0.869,1.429,0.899,1.659,1.158,0.486,0.851,0.812,��,7.0,��
2018/04/30,17:20,0.870,1.430,0.901,1.659,1.156,0.485,0.851,0.810,��,8.1,��
2018/04/30,17:30,0.867,1.428,0.901,1.661,1.155,0.482,0.851,0.813,��,8.7,��
2018/04/30,17:40,0.871,1.426,0.899,1.659,1.158,0.483,0.850,0.811,��,9.1,��
2018/04/30,17:50,0.870,1.428,0.900,1.659,1.157,0.482,0.851,0.813,��,7.6,��
2018/04/30,18:00,0.870,1.429,0.898,1.663,1.155,0.484,0.850,0.814,��,7.5,��
2018/04/30,18:10,0.868,1.430,0.901,1.660,1.156,0.482,0.852,0.815,��,7.9,��
2018/04/30,18:20,0.870,1.428,0.899,1.663,1.156,0.483,0.851,0.815,��,8.1,��
2018/04/30,18:30,0.868,1.426,0.899,1.665,1.157,0.484,0.852,0.813,��,7.9,��
2018/04/30,18:40,0.868,1.427,0.901,1.662,1.155,0.483,0.851,0.815,��,8.7,��
2018/04/30,18:50,0.869,1.428,0.898,1.662,1.156,0.484,0.852,0.813,��,7.8,��
2018/04/30,19:00,0.869,1.428,0.900,1.664,1.157,0.484,0.852,0.814,��,8.1,��
2018/04/30,19:10,0.870,1.428,0.901,1.662,1.154,0.483,0.851,0.815,��,9.4,��
2018/04/30,19:20,0.869,1.425,0.903,1.660,1.157,0.481,0.853,0.814,��,7.9,��
2018/04/30,19:30,0.869,1.430,0.901,1.662,1.156,0.483,0.851,0.813,��,6.5,��
2018/04/30,19:40,0.872,1.426,0.902,1.658,1.158,0.485,0.852,0.815,��,5.2,��
2018/04/30,19:50,0.871,1.431,0.900,1.659,1.157,0.484,0.853,0.815,��,5.7,��
2018/04/30,20:00,0.869,1.431,0.902,1.661,1.157,0.484,0.854,0.813,��,5.9,��
2018/04/30,20:10,0.869,1.431,0.903,1.660,1.158,0.485,0.853,0.815,��,7.6,��
2018/04/30,20:20,0.870,1.432,0.903,1.662,1.156,0.485,0.853,0.815,��,8.4,��
2018/04/30,20:30,0.868,1.432,0.900,1.661,1.155,0.484,0.851,0.814,��,8.1,��
2018/04/30,20:40,0.871,1.431,0.902,1.664,1.156,0.484,0.852,0.813,��,6.8,��
2018/04/30,20:50,0.870,1.428,0.902,1.662,1.155,0.484,0.853,0.812,��,7.8,��
2018/04/30,21:00,0.869,1.432,0.901,1.661,1.156,0.485,0.852,0.814,��,7.2,��
2018/04/30,21:10,0.870,1.433,0.902,1.663,1.156,0.486,0.852,0.813,��쐼,7.1,��
2018/04/30,21:20,0.869,1.431,0.902,1.660,1.157,0.485,0.852,0.814,��,6.6,��
2018/04/30,21:30,0.870,1.430,0.902,1.663,1.159,0.485,0.853,0.813,��,6.0,��
2018/04/30,21:40,0.871,1.430,0.901,1.661,1.157,0.485,0.853,0.813,��쐼,5.1,��
2018/04/30,21:50,0.871,1.428,0.902,1.661,1.157,0.486,0.852,0.813,��쐼,5.5,��
2018/04/30,22:00,0.870,1.430,0.902,1.660,1.156,0.485,0.852,0.814,��쐼,4.7,��
2018/04/30,22:10,0.872,1.430,0.902,1.662,1.159,0.486,0.852,0.814,��쐼,3.8,��
2018/04/30,22:20,0.871,1.431,0.903,1.663,1.159,0.486,0.853,0.813,��쐼,3.9,��
2018/04/30,22:30,0.871,1.430,0.901,1.663,1.156,0.485,0.852,0.814,��,3.4,��
2018/04/30,22:40,0.872,1.427,0.903,1.662,1.158,0.485,0.854,0.813,��쐼,3.1,��
2018/04/30,22:50,0.873,1.432,0.902,1.661,1.157,0.485,0.851,0.813,�쐼,2.3,��
2018/04/30,23:00,0.870,1.425,0.902,1.663,1.158,0.485,0.853,0.814,���쐼,2.0,��
2018/04/30,23:10,0.874,1.429,0.901,1.663,1.160,0.488,0.853,0.813,���k��,1.7,��
2018/04/30,23:20,0.872,1.429,0.903,1.660,1.157,0.485,0.852,0.814,���k��,2.3,��
2018/04/30,23:30,0.872,1.431,0.902,1.658,1.156,0.487,0.853,0.815,�k��,3.0,��
2018/04/30,23:40,0.872,1.428,0.901,1.661,1.157,0.487,0.852,0.814,�k��,3.3,��
2018/04/30,23:50,0.871,1.429,0.903,1.662,1.158,0.486,0.852,0.815,�k��,3.3,��
